Weather History for KMCD - August, 2013

Change the Weather History Date:

Wednesday, August 7, 2013

  Actual Average (KPLN) Record (KPLN)
Temperature  
Mean Temperature 65 °F -  
Max Temperature 71 °F 79 °F - (-1)
Min Temperature 59 °F 53 °F - (-1)
Growing Degree Days 15 (Base 50)    
Moisture  
Dew Point 62 °F    
Average Humidity 84    
Maximum Humidity 94    
Minimum Humidity 67    
Precipitation  
Precipitation 0.30 in - - ()
Sea Level Pressure  
Sea Level Pressure 29.80 in    
Wind  
Wind Speed 7 mph (West)    
Max Wind Speed 18 mph    
Max Gust Speed 29 mph    
Visibility 9 miles    
Events Rain    
Averages and records for this station are not official NWS values.
T = Trace of Precipitation, MM = Missing Value Source: NWS Daily Summary

Daily Weather History Graph

Daily Weather History Graph

Search for Another Location

Airport or City:

Trip Planner

Search our weather history database for the weather conditions in past years. The results will help you decide how hot, cold, wet, or windy it might be!

Date:

Astronomy

Aug. 07, 2013 Rise Set
Actual Time 6:28 AM EDT 8:58 PM EDT
Civil Twilight 5:55 AM EDT 9:32 PM EDT
Nautical Twilight 5:13 AM EDT 10:14 PM EDT
Astronomical Twilight 4:24 AM EDT 11:01 PM EDT
Moon 7:22 AM EDT (8/7) 8:57 PM EDT (8/7)
Length of Visible Light 15h 37m
Length of Day
14h 30m
New Moon, 1% of the Moon is Illuminated
Aug 7
New Moon
Aug 14
First Quarter
Aug 20
Full
Aug 28
Last Quarter
Sep 5
New

Hourly Weather History & Observations

Time (EDT) Temp. Dew Point Humidity Pressure Visibility Wind Dir Wind Speed Gust Speed Precip Events Conditions
12:16 AM 66.6 °F 64.0 °F 92% 29.79 in 5.0 mi South 4.6 mph - N/A   Mostly Cloudy
12:36 AM 66.6 °F 64.4 °F 93% 29.79 in 7.0 mi SE 5.8 mph - N/A   Scattered Clouds
12:56 AM 67.1 °F 64.6 °F 92% 29.80 in 5.0 mi WSW 6.9 mph - 0.01 in Rain Light Rain
1:16 AM 67.1 °F 64.6 °F 92% 29.78 in 7.0 mi SSE 5.8 mph - N/A   Overcast
1:36 AM 67.3 °F 64.6 °F 91% 29.77 in 7.0 mi SSE 8.1 mph - N/A   Scattered Clouds
1:56 AM 67.3 °F 64.8 °F 92% 29.77 in 7.0 mi South 6.9 mph - N/A Rain Light Rain
2:16 AM 68.0 °F 65.3 °F 91% 29.76 in 7.0 mi Calm Calm - N/A   Overcast
2:36 AM 68.2 °F 65.3 °F 90% 29.75 in 7.0 mi SSW 4.6 mph - 0.01 in Rain Light Rain
2:56 AM 68.4 °F 65.3 °F 90% 29.75 in 7.0 mi South 4.6 mph - 0.01 in   Overcast
3:16 AM 68.2 °F 65.3 °F 90% 29.74 in 7.0 mi South 4.6 mph - N/A   Overcast
3:36 AM 68.0 °F 65.3 °F 91% 29.73 in 7.0 mi South 4.6 mph - N/A   Overcast
3:56 AM 67.6 °F 64.9 °F 91% 29.72 in 7.0 mi South 4.6 mph - N/A   Mostly Cloudy
4:16 AM 66.7 °F 64.4 °F 92% 29.70 in 4.0 mi Calm Calm - N/A   Scattered Clouds
4:36 AM 66.4 °F 64.6 °F 94% 29.70 in 3.0 mi SE 5.8 mph - N/A   Mostly Cloudy
4:56 AM 67.3 °F 65.1 °F 93% 29.72 in 5.0 mi South 6.9 mph - N/A   Overcast
5:16 AM 67.3 °F 64.0 °F 89% 29.72 in 7.0 mi WSW 16.1 mph 28.8 mph 0.02 in Rain Rain
5:36 AM 66.4 °F 64.4 °F 93% 29.71 in 7.0 mi SW 9.2 mph 25.3 mph 0.09 in Rain Rain
5:56 AM 66.2 °F 64.0 °F 93% 29.69 in 7.0 mi WSW 6.9 mph - 0.15 in Rain Light Rain
6:16 AM 65.7 °F 63.7 °F 93% 29.68 in 7.0 mi Calm Calm - 0.01 in Rain Light Rain
6:36 AM 65.7 °F 63.9 °F 94% 29.68 in 7.0 mi Calm Calm - 0.01 in Rain Rain
6:56 AM 65.3 °F 63.5 °F 94% 29.68 in 5.0 mi Calm Calm - 0.01 in Rain Light Rain
7:16 AM 65.3 °F 63.7 °F 94% 29.69 in 4.0 mi Calm Calm - 0.01 in Rain Heavy Rain
7:36 AM 65.7 °F 64.0 °F 94% 29.69 in 7.0 mi Calm Calm - 0.01 in Rain Light Rain
7:56 AM 65.7 °F 64.0 °F 94% 29.70 in 7.0 mi Calm Calm - 0.01 in Rain Light Rain
8:16 AM 65.7 °F 64.0 °F 94% 29.71 in 3.0 mi West 11.5 mph - 0.06 in Rain Heavy Rain
8:36 AM 65.7 °F 64.0 °F 94% 29.72 in 5.0 mi WNW 3.5 mph - 0.11 in Rain Rain
8:56 AM 65.7 °F 63.9 °F 94% 29.72 in 10.0 mi West 4.6 mph - 0.11 in   Light Drizzle
9:16 AM 66.2 °F 64.0 °F 93% 29.72 in 10.0 mi Calm Calm - N/A   Overcast
9:36 AM 66.7 °F 64.8 °F 93% 29.73 in 10.0 mi West 5.8 mph - N/A   Mostly Cloudy
9:56 AM 68.0 °F 65.3 °F 91% 29.73 in 10.0 mi WSW 5.8 mph - N/A   Mostly Cloudy
10:16 AM 67.6 °F 65.1 °F 92% 29.73 in 10.0 mi West 9.2 mph - N/A   Overcast
10:36 AM 68.9 °F 65.5 °F 89% 29.74 in 10.0 mi West 11.5 mph - N/A   Overcast
10:56 AM 69.6 °F 65.7 °F 87% 29.75 in 10.0 mi West 12.7 mph - N/A   Mostly Cloudy
11:16 AM 69.8 °F 65.3 °F 86% 29.74 in 10.0 mi West 12.7 mph - N/A   Mostly Cloudy
11:36 AM 70.0 °F 64.6 °F 83% 29.75 in 10.0 mi West 9.2 mph - N/A   Mostly Cloudy
11:56 AM 70.0 °F 64.9 °F 84% 29.76 in 10.0 mi WSW 9.2 mph 16.1 mph N/A   Overcast
12:16 PM 70.9 °F 63.3 °F 77% 29.77 in 10.0 mi WSW 10.4 mph 17.3 mph N/A   Mostly Cloudy
12:36 PM 70.7 °F 64.0 °F 79% 29.77 in 10.0 mi West 15.0 mph 19.6 mph N/A   Mostly Cloudy
12:56 PM 68.7 °F 63.7 °F 84% 29.79 in 10.0 mi WSW 10.4 mph 18.4 mph N/A   Overcast
1:16 PM 69.1 °F 64.2 °F 84% 29.79 in 10.0 mi West 11.5 mph 18.4 mph N/A   Overcast
1:35 PM 70.2 °F 64.6 °F 82% 29.80 in 10.0 mi West 16.1 mph - N/A   Overcast
1:56 PM 70.0 °F 64.0 °F 81% 29.80 in 10.0 mi West 16.1 mph - N/A   Overcast
2:16 PM 68.9 °F 63.9 °F 84% 29.80 in 10.0 mi West 12.7 mph - N/A   Overcast
2:35 PM 70.0 °F 63.7 °F 80% 29.81 in 10.0 mi West 12.7 mph - N/A   Overcast
2:56 PM 71.1 °F 63.5 °F 77% 29.81 in 10.0 mi West 12.7 mph - N/A   Mostly Cloudy
3:16 PM 71.2 °F 62.8 °F 75% 29.82 in 10.0 mi West 13.8 mph - N/A   Overcast
3:35 PM 71.8 °F 61.2 °F 69% 29.82 in 10.0 mi West 15.0 mph - N/A   Overcast
3:56 PM 70.0 °F 61.5 °F 74% 29.82 in 10.0 mi West 15.0 mph - N/A   Overcast
4:16 PM 69.4 °F 60.8 °F 74% 29.83 in 10.0 mi West 16.1 mph - N/A   Overcast
4:36 PM 70.0 °F 60.6 °F 72% 29.83 in 10.0 mi West 18.4 mph - N/A   Overcast
4:56 PM 70.7 °F 61.0 °F 71% 29.83 in 10.0 mi West 15.0 mph 18.4 mph N/A   Mostly Cloudy
5:16 PM 70.3 °F 59.7 °F 69% 29.83 in 10.0 mi West 15.0 mph 18.4 mph N/A   Scattered Clouds
5:36 PM 70.0 °F 60.4 °F 72% 29.83 in 10.0 mi West 9.2 mph - N/A   Clear
5:56 PM 71.4 °F 60.1 °F 67% 29.84 in 10.0 mi West 9.2 mph - N/A   Scattered Clouds
6:16 PM 70.9 °F 60.3 °F 69% 29.85 in 10.0 mi WNW 6.9 mph 11.5 mph N/A   Overcast
6:36 PM 71.1 °F 60.3 °F 69% 29.85 in 10.0 mi West 13.8 mph - N/A   Overcast
6:56 PM 69.8 °F 60.3 °F 72% 29.86 in 10.0 mi West 8.1 mph - N/A   Overcast
7:16 PM 68.5 °F 58.6 °F 71% 29.86 in 10.0 mi WNW 9.2 mph - N/A   Overcast
7:36 PM 68.0 °F 58.6 °F 72% 29.88 in 10.0 mi NW 11.5 mph 18.4 mph N/A   Mostly Cloudy
7:56 PM 66.4 °F 57.2 °F 72% 29.88 in 10.0 mi NW 10.4 mph - N/A   Clear
8:16 PM 65.3 °F 57.2 °F 75% 29.89 in 10.0 mi NW 9.2 mph 17.3 mph N/A   Mostly Cloudy
8:36 PM 64.4 °F 56.7 °F 76% 29.90 in 10.0 mi NW 12.7 mph 18.4 mph N/A   Overcast
8:56 PM 63.9 °F 56.1 °F 76% 29.91 in 10.0 mi NW 11.5 mph 20.7 mph N/A   Overcast
9:15 PM 63.5 °F 55.8 °F 76% 29.92 in 10.0 mi NW 8.1 mph - N/A   Overcast
9:36 PM 63.0 °F 55.8 °F 77% 29.93 in 10.0 mi NW 9.2 mph 16.1 mph N/A   Overcast
9:56 PM 61.7 °F 55.4 °F 80% 29.93 in 10.0 mi NW 5.8 mph - N/A   Mostly Cloudy
10:15 PM 60.8 °F 55.6 °F 83% 29.94 in 10.0 mi WNW 5.8 mph - N/A   Scattered Clouds
10:36 PM 60.1 °F 54.9 °F 83% 29.94 in 10.0 mi NW 6.9 mph - N/A   Clear
10:56 PM 59.5 °F 54.7 °F 84% 29.95 in 10.0 mi NW 8.1 mph - N/A   Clear
11:15 PM 59.4 °F 54.7 °F 84% 29.96 in 10.0 mi West 6.9 mph - N/A   Clear
11:36 PM 59.0 °F 54.5 °F 85% 29.97 in 10.0 mi WNW 9.2 mph - N/A   Clear
11:56 PM 59.0 °F 53.6 °F 82% 29.96 in 10.0 mi WNW 9.2 mph - N/A   Clear